Tracking 33165 objects as of 8-Feb-2026
HD Live streaming from Space Station
objects crossing your sky now

STARLINK-36167

Track STARLINK-36167 now!
10-day predictions


NORAD ID: 67011
Int'l Code: 2025-293J
Perigee: 577.0 km
Apogee: 581.3 km
Inclination: 70.0 °
Period: 96.1 minutes
Semi major axis: 6950 km
RCS: Unknown
Launch date: December 10, 2025
Source: United States (US)
Launch site: AIR FORCE WESTERN TEST RANGE (AFWTR)
Your satellite tracking list
Your tracking list is empty




NASA's NSSDC Master Catalog

Two Line Element Set (TLE):
1 67011U 25293J   26038.79481670  .00008357  00000-0  70694-3 0  9999
2 67011  70.0014 169.6792 0003107 271.6315  88.4488 14.98354111 10418
Source of the keplerian elements: AFSPC